Location: Oberwangen
(47.4286°N, 8.9679°E)
Time: 15:27:29
(UTC+00:00)

FALCON 9 DEB - Pass Details

Date: 20 June 2021
Orbit: 362 x 379 km, 53.0° (Epoch: 02 August)

Event Time Altitude Azimuth Distance (km) Brightness Sun altitude
Rises 20:22:32 0° 220° (SW) 2,250 6.7 -8.0°
Reaches altitude 10° 20:24:39 10° 212° (SSW) 1,404 5.5 -8.3°
Maximum altitude 20:27:35 38° 142° (SE) 612 3.4 -8.6°
Drops below altitude 10° 20:30:33 10° 73° (ENE) 1,417 5.5 -8.9°
Sets 20:32:42 0° 65° (ENE) 2,275 6.6 -9.1°
